| time (UTC) | temp C | wind direction | speed KPH | gust KPH | rain 1hr cm | rain 24hr cm | rain mn cm | humidity % | barometer mb |
| 20260509171530 | 15 | 336 | 6.4 | 14.5 | 0.00 | 0.00 | 0.00 | 59 | 1023.8 |
| 20260509170032 | 15 | 348 | 8.0 | 16.1 | 0.00 | 0.00 | 0.00 | 61 | 1023.9 |
| 20260509164532 | 15 | 353 | 8.0 | 16.1 | 0.00 | 0.00 | 0.00 | 61 | 1024.0 |
| 20260509163033 | 14 | 314 | 4.8 | 11.3 | 0.00 | 0.00 | 0.00 | 59 | 1024.1 |
| 20260509161532 | 13 | 346 | 4.8 | 9.7 | 0.00 | 0.00 | 0.00 | 59 | 1024.1 |
| 20260509160029 | 13 | 8 | 3.2 | 8.0 | 0.00 | 0.00 | 0.00 | 60 | 1024.2 |
| 20260509154531 | 13 | 66 | 0.0 | 4.8 | 0.00 | 0.00 | 0.00 | 64 | 1024.4 |
| 20260509153030 | 11 | 79 | 1.6 | 4.8 | 0.00 | 0.00 | 0.00 | 70 | 1024.4 |
| 20260509151534 | 10 | 16 | 0.0 | 3.2 | 0.00 | 0.00 | 0.00 | 76 | 1024.3 |
| 20260509150031 | 9 | 118 | 0.0 | 4.8 | 0.00 | 0.00 | 0.00 | 80 | 1024.3 |
| 20260509143107 | 6 | 132 | 3.2 | 6.4 | 0.00 | 0.00 | 0.00 | 87 | 1024.2 |
| 20260509141532 | 5 | 127 | 4.8 | 8.0 | 0.00 | 0.00 | 0.00 | 86 | 1024.0 |
| 20260509140115 | 5 | 156 | 4.8 | 9.7 | 0.00 | 0.00 | 0.00 | 87 | 1023.8 |
| 20260509134533 | 4 | 155 | 4.8 | 11.3 | 0.00 | 0.00 | 0.00 | 89 | 1023.8 |
| 20260509133033 | 4 | 163 | 4.8 | 8.0 | 0.00 | 0.00 | 0.00 | 90 | 1023.8 |
| 20260509131531 | 3 | 144 | 6.4 | 11.3 | 0.00 | 0.00 | 0.00 | 91 | 1023.8 |
| 20260509130031 | 3 | 155 | 4.8 | 8.0 | 0.00 | 0.00 | 0.00 | 91 | 1023.5 |
| 20260509124531 | 3 | 158 | 3.2 | 6.4 | 0.00 | 0.00 | 0.00 | 91 | 1023.4 |
| 20260509123028 | 3 | 173 | 4.8 | 8.0 | 0.00 | 0.00 | 0.00 | 92 | 1023.3 |
| 20260509121532 | 3 | 145 | 4.8 | 6.4 | 0.00 | 0.00 | 0.00 | 92 | 1023.4 |
| 20260509113030 | 4 | 143 | 3.2 | 6.4 | 0.00 | 0.00 | 0.00 | 90 | 1023.4 |
| 20260509104531 | 5 | 119 | 1.6 | 6.4 | 0.00 | 0.00 | 0.00 | 85 | 1023.5 |
| 20260509103033 | 6 | 147 | 3.2 | 8.0 | 0.00 | 0.00 | 0.00 | 82 | 1023.6 |
| 20260509100033 | 7 | 166 | 4.8 | 12.9 | 0.00 | 0.00 | 0.00 | 82 | 1023.8 |
| 20260509094529 | 7 | 176 | 6.4 | 11.3 | 0.00 | 0.00 | 0.00 | 83 | 1023.8 |
| 20260509091532 | 7 | 160 | 4.8 | 11.3 | 0.00 | 0.00 | 0.00 | 83 | 1024.1 |
| 20260509090030 | 7 | 182 | 4.8 | 8.0 | 0.00 | 0.00 | 0.00 | 83 | 1024.2 |
| 20260509084531 | 7 | 176 | 4.8 | 11.3 | 0.00 | 0.00 | 0.00 | 83 | 1024.4 |
| 20260509083033 | 7 | 167 | 6.4 | 12.9 | 0.00 | 0.00 | 0.00 | 82 | 1024.6 |
| 20260509080030 | 8 | 173 | 4.8 | 9.7 | 0.00 | 0.00 | 0.00 | 80 | 1024.9 |
| 20260509074532 | 8 | 174 | 6.4 | 11.3 | 0.00 | 0.00 | 0.00 | 79 | 1025.1 |
| 20260509073031 | 8 | 150 | 8.0 | 14.5 | 0.00 | 0.00 | 0.00 | 79 | 1025.2 |
| 20260509070106 | 8 | 154 | 6.4 | 12.9 | 0.00 | 0.00 | 0.00 | 80 | 1025.2 |
| 20260509064532 | 9 | 175 | 3.2 | 9.7 | 0.00 | 0.00 | 0.00 | 78 | 1025.2 |
| 20260509063145 | 10 | 166 | 3.2 | 8.0 | 0.00 | 0.00 | 0.00 | 77 | 1025.4 |
| 20260509061539 | 10 | 167 | 4.8 | 6.4 | 0.00 | 0.00 | 0.00 | 75 | 1025.4 |
| 20260509054531 | 10 | 224 | 0.0 | 4.8 | 0.00 | 0.00 | 0.00 | 75 | 1025.4 |
| 20260509053046 | 10 | 106 | 1.6 | 11.3 | 0.00 | 0.00 | 0.00 | 74 | 1025.3 |
| 20260509051536 | 10 | 130 | 1.6 | 6.4 | 0.00 | 0.00 | 0.00 | 73 | 1025.2 |
| 20260509050030 | 10 | 125 | 1.6 | 8.0 | 0.00 | 0.00 | 0.00 | 70 | 1025.1 |
| 20260509044529 | 11 | 95 | 3.2 | 9.7 | 0.00 | 0.00 | 0.00 | 70 | 1025.0 |
| 20260509043106 | 11 | 288 | 1.6 | 12.9 | 0.00 | 0.00 | 0.00 | 69 | 1025.0 |
| 20260509041531 | 11 | 169 | 0.0 | 8.0 | 0.00 | 0.00 | 0.00 | 66 | 1024.8 |
| 20260509040029 | 12 | 336 | 0.0 | 3.2 | 0.00 | 0.00 | 0.00 | 63 | 1024.6 |
| 20260509034530 | 12 | 262 | 1.6 | 9.7 | 0.00 | 0.00 | 0.00 | 61 | 1024.4 |
| 20260509033032 | 13 | 235 | 3.2 | 14.5 | 0.00 | 0.00 | 0.00 | 60 | 1024.3 |
| 20260509031531 | 13 | 244 | 6.4 | 17.7 | 0.00 | 0.00 | 0.00 | 58 | 1024.1 |
| 20260509030032 | 14 | 248 | 4.8 | 14.5 | 0.00 | 0.00 | 0.00 | 55 | 1023.9 |
| 20260509024529 | 15 | 256 | 8.0 | 25.7 | 0.00 | 0.00 | 0.00 | 53 | 1023.9 |
| 20260509023032 | 15 | 257 | 9.7 | 22.5 | 0.00 | 0.00 | 0.00 | 50 | 1023.8 |
| 20260509021639 | 16 | 261 | 9.7 | 20.9 | 0.00 | 0.00 | 0.00 | 48 | 1023.7 |
| 20260509021626 | 16 | 264 | 11.3 | 27.4 | 0.00 | 0.00 | 0.00 | 46 | 1023.6 |
| 20260509013039 | 17 | 263 | 11.3 | 29.0 | 0.00 | 0.00 | 0.00 | 43 | 1023.5 |
| 20260509011540 | 17 | 253 | 14.5 | 29.0 | 0.00 | 0.00 | 0.00 | 41 | 1023.4 |
| 20260509004541 | 18 | 261 | 14.5 | 30.6 | 0.00 | 0.00 | 0.00 | 37 | 1023.3 |
| 20260509003038 | 18 | 265 | 16.1 | 30.6 | 0.00 | 0.00 | 0.00 | 35 | 1023.2 |
| 20260509001537 | 19 | 263 | 12.9 | 32.2 | 0.00 | 0.00 | 0.00 | 34 | 1023.0 |
| 20260509000041 | 20 | 260 | 12.9 | 37.0 | 0.00 | 0.00 | 0.00 | 33 | 1022.8 |
| 20260508234540 | 20 | 264 | 12.9 | 32.2 | 0.00 | 0.00 | 0.00 | 32 | 1022.8 |
| 20260508233030 | 20 | 266 | 12.9 | 38.6 | 0.00 | 0.00 | 0.00 | 31 | 1022.7 |
| 20260508231536 | 20 | 267 | 14.5 | 32.2 | 0.00 | 0.00 | 0.00 | 30 | 1022.7 |
| 20260508230029 | 20 | 264 | 12.9 | 30.6 | 0.00 | 0.00 | 0.00 | 29 | 1022.6 |
| 20260508224533 | 20 | 261 | 12.9 | 29.0 | 0.00 | 0.00 | 0.00 | 28 | 1022.5 |
| 20260508223029 | 21 | 271 | 12.9 | 30.6 | 0.00 | 0.00 | 0.00 | 27 | 1022.4 |
| 20260508221602 | 21 | 265 | 9.7 | 29.0 | 0.00 | 0.00 | 0.00 | 27 | 1022.4 |
| 20260508220028 | 21 | 267 | 6.4 | 16.1 | 0.00 | 0.00 | 0.00 | 27 | 1022.4 |
| 20260508214531 | 20 | 265 | 9.7 | 22.5 | 0.00 | 0.00 | 0.00 | 26 | 1022.5 |
| 20260508213145 | 20 | 261 | 16.1 | 37.0 | 0.00 | 0.00 | 0.00 | 26 | 1022.5 |
| 20260508211530 | 20 | 252 | 12.9 | 30.6 | 0.00 | 0.00 | 0.00 | 25 | 1022.5 |
| 20260508210145 | 20 | 243 | 12.9 | 30.6 | 0.00 | 0.00 | 0.00 | 24 | 1022.5 |
| 20260508204533 | 18 | 240 | 11.3 | 24.1 | 0.00 | 0.00 | 0.00 | 28 | 1022.4 |
| 20260508203116 | 17 | 256 | 14.5 | 40.2 | 0.00 | 0.00 | 0.00 | 28 | 1022.4 |
| 20260508201605 | 18 | 261 | 14.5 | 30.6 | 0.00 | 0.00 | 0.00 | 28 | 1022.3 |
| 20260508200106 | 18 | 250 | 14.5 | 33.8 | 0.00 | 0.00 | 0.00 | 28 | 1022.3 |
| 20260508193145 | 19 | 251 | 14.5 | 29.0 | 0.00 | 0.00 | 0.00 | 33 | 1022.1 |
| 20260508191608 | 18 | 268 | 11.3 | 27.4 | 0.00 | 0.00 | 0.00 | 36 | 1022.0 |
| 20260508190029 | 17 | 286 | 11.3 | 33.8 | 0.00 | 0.00 | 0.00 | 36 | 1021.9 |
| 20260508184531 | 16 | 290 | 11.3 | 29.0 | 0.00 | 0.00 | 0.00 | 43 | 1021.9 |
| 20260508183030 | 15 | 348 | 6.4 | 12.9 | 0.00 | 0.00 | 0.00 | 49 | 1021.9 |
| 20260508181531 | 13 | 357 | 6.4 | 12.9 | 0.00 | 0.00 | 0.00 | 54 | 1021.7 |
| 20260508180032 | 12 | 330 | 3.2 | 11.3 | 0.00 | 0.00 | 0.00 | 56 | 1021.7 |
| 20260508174541 | 12 | 3 | 4.8 | 11.3 | 0.00 | 0.00 | 0.00 | 57 | 1021.8 |
| 20260508173107 | 12 | 4 | 8.0 | 16.1 | 0.00 | 0.00 | 0.00 | 58 | 1021.4 |